This is the latest recevied weather packets stored in our database for station/object K7LDN-13. If no packets are shown the sender has not sent any weather packets the latest 10 day(s).
| Time | Temp. | Humidity | Pressure | Rain* | Wind** | Luminosity | Snow |
|---|---|---|---|---|---|---|---|
| 1777821328 | 15° C | 40% | 1019.4 hPa | 0 mm | - | 383 W/m² | - |
| 1777821024 | 14.44° C | 41% | 1019.1 hPa | 0 mm | - | 279 W/m² | - |
| 1777820720 | 14.44° C | 40% | 1019.4 hPa | 0 mm | - | 234 W/m² | - |
| 1777820416 | 14.44° C | 39% | 1019 hPa | 0 mm | - | 245 W/m² | - |
| 1777820114 | 14.44° C | 40% | 1019.1 hPa | 0 mm | - | 266 W/m² | - |
| 1777819811 | 14.44° C | 41% | 1019.3 hPa | 0 mm | - | 301 W/m² | - |
| 1777819509 | 13.89° C | 40% | 1018.9 hPa | 0 mm | - | 319 W/m² | - |
| 1777819206 | 13.89° C | 40% | 1019.3 hPa | 0 mm | - | 312 W/m² | - |
| 1777818903 | 13.89° C | 41% | 1019.3 hPa | 0 mm | - | 293 W/m² | - |
| 1777818599 | 13.89° C | 40% | 1019.1 hPa | 0 mm | - | 267 W/m² | - |
| 1777818296 | 13.33° C | 41% | 1019.1 hPa | 0 mm | - | 237 W/m² | - |
| 1777817992 | 13.33° C | 41% | 1019 hPa | 0 mm | - | 223 W/m² | - |
| 1777817690 | 13.33° C | 41% | 1019.3 hPa | 0 mm | - | 211 W/m² | - |
| 1777817387 | 13.33° C | 41% | 1019 hPa | 0 mm | - | 208 W/m² | - |
| 1777817083 | 13.33° C | 40% | 1019 hPa | 0 mm | - | 202 W/m² | - |
| 1777816779 | 12.78° C | 41% | 1019.3 hPa | 0 mm | - | 185 W/m² | - |
| 1777816478 | 12.78° C | 42% | 1019 hPa | 0 mm | - | 155 W/m² | - |
| 1777816175 | 12.22° C | 43% | 1019.1 hPa | 0 mm | - | 145 W/m² | - |
| 1777815872 | 11.67° C | 45% | 1018.9 hPa | 0 mm | - | 136 W/m² | - |
| 1777815570 | 11.11° C | 45% | 1019.3 hPa | 0 mm | - | 106 W/m² | - |
| 1777815267 | 10.56° C | 44% | 1019 hPa | 0 mm | - | 99 W/m² | - |
| 1777814962 | 10° C | 42% | 1018.9 hPa | 0 mm | - | 90 W/m² | - |
| 1777814660 | 8.89° C | 47% | 1018.8 hPa | 0 mm | - | 80 W/m² | - |
| 1777814356 | 8.89° C | 47% | 1018.7 hPa | 0 mm | - | 63 W/m² | - |
| 1777814053 | 8.89° C | 46% | 1018.9 hPa | 0 mm | - | 54 W/m² | - |
* Rain latest hour (hover to see other rain measurements)
** Current wind speed in m/s (hover to see current wind gust speed)